[[{"header":{"parameterUnit":"m.s-1","parameterCategory":1,"la1":30.2991,"la2":30.254,"lo1":-89.0895,"lo2":-89.0444,"dy":0.0017,"dx":0.0017,"nx":28,"ny":28,"refTime":"2024-07-29T03:00:00:Z","depth":0,"parameterNumber":2,"parameterNumberName":"U-component_of_WINDS"},"data":[0,0,0,0,0,0,0,0,0,0,0,0,0,0,0,0,0,0,0,0,0,0,0,0,0,0,0,0,0,0,0,0,0,0,0,0,0,0,0,0,0,0,0,0,0,0,0,0,0,0,0,0,0,0,0,0,0,0,1.9945,1.9946,0,2.0048,2.0049,2.005,2.0033,2.0032,2.003,2.0028,2.0136,2.0141,2.0145,0,0,0,0,0,0,0,0,0,0,0,0,0,1.9734,1.9738,1.9945,1.9946,1.9947,2.0047,2.0049,2.005,2.0034,2.0032,2.0029,2.0027,2.0135,2.014,2.0145,0,0,0,0,0,0,0,0,0,0,0,0,0,1.983,1.974,1.9944,1.9951,1.9953,2.0047,2.0049,2.0051,2.0034,2.0032,2.0029,2.0026,2.0133,2.0139,2.0146,2.0241,0,0,2.0167,2.017,0,0,0,0,0,0,0,0,1.9825,1.9838,1.9949,1.9951,1.9953,2.0025,2.0014,2.0115,2.0035,2.0003,2.0028,2.0025,2.0101,2.0111,2.0136,2.0246,2.0251,2.0168,2.0172,2.0175,2.0176,0,0,0,0,0,0,0,1.9818,1.9834,1.9985,1.995,1.9953,1.9949,1.996,2.0033,2.0066,2.0006,2.0005,2.0017,2.0102,2.0129,2.0138,2.0253,2.0167,2.0173,2.0178,2.018,2.0443,2.0446,0,0,0,0,0,0,1.981,1.9828,1.9982,1.9988,1.9881,1.9955,1.9967,2.0004,2.0065,2.0072,2.0019,2.0016,2.0119,2.013,2.0142,2.0255,2.0175,2.0181,2.0185,2.044,2.0444,2.0447,0,0,0,0,0,0,1.9805,1.9823,1.9978,1.9908,1.9927,1.9961,2.0004,2.0008,2.0035,2.0075,2.0081,2.0041,2.0117,2.0132,2.0216,2.0259,2.0184,2.019,2.0437,2.0441,2.0445,2.0484,0,0,0,0,0,0,1.9799,1.9822,1.9859,1.9909,1.9931,2.005,2.0006,2.0012,2.0047,2.0043,2.0097,2.0104,2.0116,2.0206,2.0223,2.0267,2.0195,2.0433,2.0439,2.0444,2.0479,2.0489,2.0498,0,0,0,0,0,1.9792,1.9867,1.9861,1.9879,1.9978,2.0053,2.0066,2.0078,2.005,2.0087,2.0112,2.0102,2.0251,2.0214,2.0233,2.028,2.0431,2.0437,2.0444,2.0475,2.0487,2.0498,0,0,0,0,0,0,1.9822,1.9874,1.9867,1.9961,2.0002,2.005,2.0097,2.0091,2.0142,2.0137,2.015,2.0163,2.0247,2.0272,2.023,2.0374,2.0337,2.0348,2.0355,2.0367,2.0376,2.0368,2.0201,0,0,0,0,0,1.984,1.9896,1.9938,2.0016,2.0037,2.0063,2.0097,2.0102,2.0146,2.0164,2.0196,2.0239,2.0295,2.0332,2.0387,2.0483,2.0493,2.0524,2.0533,2.0541,2.055,2.06,2.0613,2.0469,2.0468,2.0468,0,0,1.9877,1.9912,1.9947,2.0023,2.0056,2.0114,2.0079,2.0142,2.0184,2.0174,2.0254,2.0278,2.0328,2.0417,2.0458,2.044,2.0592,2.0549,2.0555,2.056,2.0608,2.0622,2.0634,2.0473,2.0472,2.0471,0,0,1.9973,2.0006,2.0074,2.0106,2.0156,2.0172,2.0188,2.0236,2.0251,2.0331,2.0324,2.0375,2.0472,2.0507,2.0537,2.0643,2.0635,2.0661,2.071,2.0759,2.077,2.078,2.0816,2.0829,2.067,2.067,2.067,0,2.0014,2.01,2.011,2.0173,2.0206,2.0197,2.0264,2.0296,2.0361,2.0384,2.0364,2.0483,2.0517,2.0612,2.0638,2.0663,2.0681,2.0655,2.0767,2.0778,2.0787,2.0822,2.0836,2.0672,2.0672,2.0672,2.0672,0,2.0145,2.0205,2.0254,2.0315,2.0353,2.0419,2.0438,2.0476,2.0477,2.0495,2.0576,2.0614,2.0675,2.0698,2.0701,2.0794,2.0781,2.0764,2.0727,2.0804,2.0836,2.085,2.0676,2.0675,2.0674,2.0674,0,0,2.0266,2.0329,2.0347,2.0373,2.0425,2.0472,2.0536,2.0593,2.0625,2.067,2.0723,2.0804,2.0787,2.0821,2.0828,2.0871,2.095,2.0848,2.0849,2.0864,2.1052,2.1064,2.1079,2.0944,2.0947,2.0949,2.1047,0,2.0367,2.0479,2.0488,2.0589,2.0643,2.0634,2.069,2.0727,2.0746,2.0794,2.0814,2.0871,2.0845,2.0866,2.0908,2.0931,2.0987,2.0924,2.0994,2.0996,2.0981,2.1097,2.1111,2.1202,2.106,2.1063,2.1064,0,2.05,2.0545,2.0651,2.0693,2.0716,2.0766,2.0818,2.0865,2.0907,2.0917,2.0953,2.0953,2.1018,2.0979,2.1068,2.1025,2.1053,2.1069,2.1073,2.1079,2.1034,2.1106,2.1231,2.1244,2.1085,2.1083,2.1082,0,2.0575,2.0664,2.0737,2.0761,2.0812,2.0846,2.0869,2.0909,2.0942,2.0987,2.1009,2.1062,2.1091,2.1132,2.1146,2.1116,2.1234,2.1196,2.1244,2.1243,2.1269,2.1267,2.14,2.1289,2.1289,2.1288,2.1288,0,2.0686,2.0751,2.0772,2.0817,2.0889,2.0898,2.0969,2.099,2.1024,2.1073,2.1069,2.1115,2.1131,2.118,2.1191,2.1262,2.1275,2.1285,2.1287,2.1285,2.1284,2.1304,2.1298,2.1292,2.1291,2.1291,2.129,0,2.0783,2.0799,2.0879,2.092,2.0931,2.0982,2.1017,2.106,2.1076,2.1138,2.1154,2.1179,2.1236,2.1253,2.1323,2.133,2.1413,2.141,2.1398,2.1398,2.1444,2.1439,2.1594,2.1614,2.1491,2.1492,2.1493,0,2.0852,2.0901,2.0946,2.0978,2.1002,2.1053,2.1086,2.1097,2.1131,2.1181,2.1218,2.1274,2.1319,2.141,2.1435,2.1487,2.1484,2.1535,2.1492,2.1488,2.1484,2.148,2.1484,2.1543,2.1544,2.1545,2.1546,0,2.0973,2.0978,2.1025,2.1075,2.1114,2.1154,2.1192,2.1218,2.1234,2.1273,2.133,2.1364,2.1433,2.1488,2.154,2.1564,2.1558,2.1559,2.1573,2.1571,2.1561,2.1566,2.1419,2.1556,2.1555,2.1554,2.1554,2.1553,2.1058,2.11,2.1137,2.1189,2.1218,2.1253,2.1295,2.1315,2.1363,2.1418,2.1422,2.1483,2.1521,2.159,2.1616,2.1664,2.165,2.167,2.1675,2.1679,2.1682,2.1554,2.1674,2.1674,2.1674,2.1673,2.1673,0,2.1177,2.12,2.1247,2.13,2.134,2.1329,2.137,2.1404,2.1458,2.1494,2.1537,2.1601,2.1653,2.1681,2.1733,2.1766,2.1764,2.1779,2.1777,2.1782,2.1693,2.1675,2.178,2.178,2.1779,2.1779,2.1779,2.1779,2.1244,2.1314,2.1322,2.1406,2.1429,2.1487,2.1511,2.1543,2.1571,2.1643,2.1685,2.1702,2.1735,2.1788,2.1835,2.1842,2.1861,2.1878,2.1883,2.1799,2.1788,2.1778,2.1761,2.1882,2.1882,2.1967,2.1968,2.1969]},{"header":{"parameterUnit":"m.s-1","parameterCategory":1,"la1":30.2991,"la2":30.254,"lo1":-89.0895,"lo2":-89.0444,"dy":0.0017,"dx":0.0017,"nx":28,"ny":28,"refTime":"2024-07-29T03:00:00:Z","depth":0,"parameterNumber":3,"parameterNumberName":"V-component_of_WINDS"},"data":[0,0,0,0,0,0,0,0,0,0,0,0,0,0,0,0,0,0,0,0,0,0,0,0,0,0,0,0,0,0,0,0,0,0,0,0,0,0,0,0,0,0,0,0,0,0,0,0,0,0,0,0,0,0,0,0,0,0,5.2384,5.2386,0,5.253,5.2532,5.2533,5.251,5.2507,5.2505,5.2503,5.2644,5.265,5.2656,0,0,0,0,0,0,0,0,0,0,0,0,0,5.2076,5.2082,5.2384,5.2386,5.2388,5.253,5.2532,5.2534,5.251,5.2507,5.2504,5.2502,5.2642,5.2649,5.2656,0,0,0,0,0,0,0,0,0,0,0,0,0,5.2214,5.2084,5.2384,5.2393,5.2396,5.2529,5.2532,5.2534,5.2511,5.2507,5.2504,5.25,5.2639,5.2648,5.2657,5.2788,0,0,5.2685,5.2689,0,0,0,0,0,0,0,0,5.2207,5.2226,5.239,5.2393,5.2396,5.2498,5.2475,5.2619,5.2512,5.2467,5.2503,5.2498,5.2598,5.261,5.2645,5.2794,5.28,5.2686,5.2691,5.2695,5.2698,0,0,0,0,0,0,0,5.2197,5.2219,5.2441,5.2392,5.2396,5.2387,5.2403,5.2502,5.2551,5.2471,5.2469,5.2487,5.2598,5.2637,5.2648,5.2802,5.2685,5.2693,5.2699,5.2703,5.3064,5.3068,0,0,0,0,0,0,5.2186,5.2212,5.2437,5.2446,5.229,5.2396,5.2413,5.2469,5.255,5.2559,5.249,5.2486,5.2623,5.2638,5.2653,5.2811,5.2695,5.2704,5.2709,5.306,5.3065,5.3069,0,0,0,0,0,0,5.2179,5.2206,5.2431,5.2329,5.2356,5.2405,5.2468,5.2474,5.2512,5.2565,5.2573,5.2521,5.262,5.264,5.2755,5.2815,5.2708,5.2716,5.3055,5.3061,5.3067,5.3127,0,0,0,0,0,0,5.2171,5.2204,5.2257,5.233,5.2362,5.2533,5.2472,5.2479,5.2529,5.2524,5.2596,5.2604,5.2619,5.2741,5.2764,5.2826,5.2723,5.305,5.3058,5.3065,5.312,5.3135,5.3147,0,0,0,0,0,5.216,5.2266,5.2259,5.2287,5.2429,5.2537,5.2554,5.2572,5.2534,5.2585,5.2619,5.2602,5.2805,5.2753,5.2778,5.2844,5.3046,5.3055,5.3064,5.3114,5.3132,5.3147,0,0,0,0,0,0,5.2196,5.2276,5.2269,5.2403,5.2464,5.2532,5.2598,5.2591,5.2661,5.2653,5.2669,5.2686,5.2802,5.2834,5.2775,5.2974,5.292,5.2934,5.2948,5.2966,5.2979,5.2969,5.2731,0,0,0,0,0,5.222,5.2303,5.2367,5.2479,5.251,5.2549,5.2596,5.2605,5.2667,5.2691,5.2734,5.2792,5.2869,5.2919,5.2993,5.3124,5.3138,5.3182,5.3195,5.3206,5.3218,5.3289,5.3308,5.31,5.31,5.31,0,0,5.2269,5.2323,5.2374,5.2487,5.2535,5.2619,5.257,5.2661,5.2722,5.2704,5.2816,5.2848,5.2914,5.3038,5.3094,5.3068,5.3279,5.3218,5.3226,5.3233,5.33,5.332,5.3337,5.3106,5.3105,5.3104,0,0,5.2401,5.2452,5.255,5.2599,5.2673,5.2698,5.2722,5.2792,5.2814,5.2927,5.2915,5.2986,5.3119,5.3166,5.3207,5.3357,5.3343,5.338,5.3451,5.352,5.3536,5.3551,5.3603,5.3621,5.3393,5.3393,5.3393,0,5.2452,5.2581,5.26,5.2693,5.2741,5.2732,5.283,5.2876,5.2969,5.3002,5.2972,5.3138,5.3182,5.3315,5.3352,5.3386,5.3411,5.3372,5.3533,5.3547,5.3561,5.3611,5.3631,5.3397,5.3396,5.3396,5.3396,0,5.2639,5.2728,5.2797,5.2891,5.2948,5.3042,5.3073,5.3128,5.3131,5.3158,5.3271,5.3324,5.3408,5.344,5.3443,5.3574,5.3555,5.3529,5.3475,5.3585,5.3632,5.3651,5.3403,5.3401,5.34,5.3399,0,0,5.2798,5.2901,5.2927,5.2968,5.3049,5.3117,5.3209,5.3294,5.334,5.3404,5.348,5.3592,5.3569,5.3616,5.3624,5.3684,5.3798,5.365,5.3652,5.3675,5.3943,5.3961,5.3983,5.3789,5.3793,5.3796,5.3937,0,5.2937,5.3105,5.3125,5.3272,5.3353,5.3345,5.3425,5.3482,5.351,5.358,5.3609,5.3688,5.3652,5.368,5.3739,5.3771,5.3851,5.3761,5.3858,5.3861,5.3841,5.4008,5.4028,5.4159,5.3955,5.3959,5.3961,0,5.3122,5.3195,5.3351,5.342,5.3455,5.3527,5.3606,5.3674,5.3737,5.3753,5.3805,5.3806,5.3898,5.3841,5.3967,5.3906,5.3946,5.3967,5.3973,5.3982,5.3917,5.402,5.4201,5.4221,5.399,5.3988,5.3986,0,5.3221,5.3357,5.3468,5.3504,5.3588,5.3639,5.3675,5.3735,5.3784,5.3852,5.3884,5.396,5.4002,5.4059,5.4079,5.4036,5.4204,5.4148,5.4217,5.4217,5.4252,5.4249,5.4441,5.428,5.4279,5.4279,5.4279,0,5.3374,5.347,5.3514,5.3582,5.3688,5.3709,5.3812,5.3846,5.3899,5.3971,5.3968,5.4035,5.4058,5.4128,5.4143,5.4244,5.4263,5.4276,5.4279,5.4277,5.4275,5.4303,5.4293,5.4284,5.4283,5.4282,5.4281,0,5.3502,5.3536,5.3657,5.3727,5.3746,5.3821,5.3879,5.3944,5.3971,5.4062,5.4084,5.4126,5.4208,5.4234,5.4332,5.4342,5.4461,5.4456,5.444,5.444,5.4507,5.45,5.4723,5.4752,5.4572,5.4574,5.4575,0,5.3597,5.3671,5.375,5.38,5.3839,5.3919,5.397,5.3992,5.4045,5.4122,5.4176,5.4259,5.4326,5.4457,5.4494,5.4569,5.4565,5.4638,5.4576,5.457,5.4564,5.456,5.4566,5.4649,5.4651,5.4652,5.4653,0,5.3762,5.3775,5.3851,5.3932,5.3994,5.4058,5.412,5.416,5.4191,5.4249,5.4335,5.4388,5.4489,5.457,5.4646,5.468,5.4671,5.4673,5.4692,5.469,5.4678,5.4684,5.4471,5.4667,5.4666,5.4665,5.4664,5.4664,5.3876,5.3941,5.4007,5.409,5.414,5.4198,5.4262,5.4297,5.437,5.4457,5.4465,5.4557,5.4616,5.4718,5.4756,5.4826,5.4805,5.4833,5.4841,5.4847,5.4852,5.4668,5.484,5.484,5.4839,5.4839,5.4839,0,5.404,5.4082,5.4159,5.4247,5.4312,5.4301,5.4369,5.4423,5.4505,5.4563,5.4629,5.4727,5.4805,5.4849,5.4926,5.4974,5.4971,5.4993,5.4989,5.4997,5.4867,5.4842,5.4994,5.4993,5.4993,5.4993,5.4993,5.4993,5.4132,5.4242,5.4262,5.4395,5.4435,5.4529,5.4568,5.462,5.4666,5.4776,5.4843,5.4871,5.4922,5.5003,5.5074,5.5084,5.5112,5.5136,5.5144,5.5022,5.5006,5.4991,5.4967,5.5142,5.5142,5.5267,5.5268,5.5269]}]]